Location: Allos
(44.2333°N, 6.6333°E)
Time: 10:09:58
(UTC+00:00)

USA 215 - Pass Details

Date: 01 December 2020
Orbit: 1098 x 1110 km, 123.0° (Epoch: 22 January)

Event Time Altitude Azimuth Distance (km) Brightness Sun altitude
Exits shadow 18:46:50 67° 24° (NNE) 1,196 3.2 -29.9°
Maximum altitude 18:47:44 78° 324° (NW) 1,135 3.2 -30.1°
Drops below altitude 10° 18:54:18 10° 239° (WSW) 2,968 6.2 -31.3°
Sets 18:56:46 0° 238° (WSW) 3,925 7.0 -31.7°
